#timestamp,LO_Frequency,Hit,StdDev 
1525644015.2,286047002.2,N
1525644035.0,286047000.0,N
1525644035.9,286047000.0,N
1525644055.7,286047001.4,N
1525644075.8,286046999.9,N
1525644095.6,286047001.5,N
1525644115.5,286047000.6,N
1525644135.3,286047004.4,N
1525644155.1,286047002.6,N
1525644175.9,286047002.2,N
1525644195.7,286046999.8,N
1525644215.5,286046998.3,N
1525644235.4,286046998.5,N
1525644255.2,286046998.6,N
1525644275.1,286047000.8,N
1525644276.0,286047000.8,N
1525644295.8,286047000.0,N
1525644315.6,286047000.0,N
1525644335.5,286047000.2,N
1525644355.3,286047004.1,N
1525644375.1,286047003.3,N
1525644395.9,286047003.1,N
1525644415.7,286047005.2,N
1525644435.6,286047003.2,N
1525644455.4,286047004.4,N
1525644475.2,286047001.9,N
1525644495.1,286046999.7,N
1525644496.0,286046999.7,N
1525644515.8,286047003.8,N
1525644535.7,286047001.6,N
1525644555.5,286047003.3,N
1525644575.3,286047003.3,N
1525644595.2,286047003.8,N
1525644615.9,286047002.6,N
1525644635.7,286047001.7,N
1525644655.6,286047005.8,Y
1525644675.4,286047003.1,P
1525644695.3,286047004.2,P
1525644715.1,286047003.8,P
1525644735.8,286047002.9,Y
1525644755.7,286047002.2,P
1525644775.5,286047000.7,N
1525644795.4,286046999.6,N
1525644815.2,286046994.9,Y
1525644835.0,286046995.9,P
1525644835.9,286046995.9,N
1525644855.8,286046997.1,N
1525644875.6,286047001.1,N
1525644895.4,286046998.7,N
1525644915.3,286046998.2,N
1525644935.1,286046999.0,N
1525644955.9,286046998.8,N
1525644975.7,286047002.6,N
1525644995.5,286047001.6,N
1525645015.4,286046999.7,N
1525645035.2,286046996.6,N
1525645055.0,286046994.9,N
1525645055.9,286046994.9,N
1525645075.8,286046995.5,N
1525645095.6,286046997.7,N
1525645115.5,286046993.3,N
1525645135.3,286046996.4,N
1525645155.1,286046994.1,N
1525645175.9,286046994.4,N
1525645195.7,286046996.3,N
1525645215.5,286046994.4,N
1525645235.4,286046993.5,N
1525645255.2,286046992.0,Y
1525645275.1,286046998.8,P
1525645276.0,286046998.8,N
1525645295.8,286046999.2,N
1525645315.6,286046998.5,N
1525645335.5,286047002.7,Y
1525645355.3,286047003.9,P
1525645375.2,286047003.1,N
1525645395.9,286047002.1,N
1525645415.7,286046998.1,N
1525645435.6,286046998.7,N
1525645455.4,286047000.8,N
1525645475.3,286047002.2,N
1525645495.1,286047002.3,N
1525645496.0,286047002.3,N
1525645515.8,286047002.0,N
1525645535.7,286047003.5,N
1525645555.5,286047005.5,N
1525645575.3,286047002.2,N
1525645595.2,286047003.1,N
1525645615.0,286047004.4,N
1525645615.9,286047004.4,N
1525645635.8,286047001.5,N
1525645655.6,286047003.7,N
1525645675.4,286047004.1,N
1525645695.3,286047001.7,N
1525645715.1,286047000.9,N
1525645735.8,286047000.0,N
1525645755.7,286046999.8,N
1525645775.5,286047002.7,N
1525645795.4,286047002.2,N
1525645815.2,286047000.2,N
1525645835.0,286047003.9,N
1525645835.9,286047003.9,N
1525645855.8,286047003.0,N
1525645875.6,286047001.5,N
1525645895.4,286047001.6,N
1525645915.3,286047002.9,N
1525645935.1,286047005.7,Y
1525645955.9,286046999.9,P
1525645975.7,286046998.1,N
1525645995.5,286046996.5,N
1525646015.4,286046999.1,N
1525646035.2,286047001.2,N
1525646055.1,286046996.5,N
1525646056.0,286046996.5,N
1525646075.8,286046998.9,N
1525646125.6,286046996.5,E
1525646135.6,286047000.5,N
1525646155.4,286047001.4,P
1525646175.2,286047001.4,P
1525646195.1,286047001.4,Y
1525646196.0,286047001.4,P
1525646215.8,286047004.4,P
1525646235.7,286047003.7,N
1525646255.5,286047005.5,Y
1525646275.3,286047001.8,P
1525646295.2,286047002.9,P
1525646315.0,286047004.8,P
1525646315.9,286047004.8,Y
1525646335.7,286047002.7,P
1525646355.6,286047002.0,P
1525646375.4,286047002.8,P
1525646395.3,286046999.9,N
1525646415.1,286047002.6,N
1525646416.0,286047002.6,N
1525646435.8,286047002.2,N
1525646455.7,286047004.3,Y
1525646475.5,286046998.7,P
1525646495.4,286046996.9,N
1525646515.2,286046997.0,N
1525646535.0,286046997.3,N
1525646535.9,286046997.3,N
1525646555.8,286046994.9,N
1525646575.6,286046995.2,N
1525646595.4,286046996.4,N
1525646615.3,286046993.3,Y
1525646635.1,286046995.4,P
1525646655.9,286046996.5,P
1525646705.7,286046996.9,E
1525646715.7,286046999.2,N
1525646735.5,286047004.0,P
1525646755.3,286047002.1,N
1525646775.2,286047002.4,N
1525646795.9,286046999.9,N
1525646815.7,286047001.1,N
1525646835.6,286047000.9,N
1525646855.4,286046997.4,N
1525646875.3,286047000.6,N
1525646895.1,286047002.6,N
1525646896.0,286047002.6,N
1525646915.8,286047002.7,N
1525646935.7,286047001.4,N
1525646955.5,286047000.0,N
1525646975.3,286046999.6,N
1525646995.2,286046999.6,N
1525647015.0,286047000.8,N
1525647015.9,286047000.8,N
1525647035.8,286046998.9,N
1525647055.6,286046998.6,N
1525647075.4,286047001.2,N
1525647095.3,286046999.1,N
1525647115.1,286046998.2,N
1525647135.9,286047002.4,N
1525647155.7,286047001.3,N
1525647175.5,286047001.9,N
1525647195.4,286047003.1,N
1525647215.2,286047002.9,N
1525647235.0,286047003.6,N
1525647235.9,286047003.6,N
1525647255.8,286047005.3,Y
1525647275.6,286047005.8,P
1525647295.5,286047005.9,N
1525647315.3,286047005.6,N
1525647335.1,286047005.6,N
1525647355.9,286047001.4,N
1525647375.7,286047004.2,N
1525647395.5,286047003.9,N
1525647415.4,286047002.2,N
1525647435.2,286047003.7,N
1525647455.1,286047001.8,N
1525647456.0,286047001.8,N
1525647475.8,286047001.8,N
1525647495.6,286047003.5,N
1525647515.5,286047004.3,N
1525647535.3,286047001.6,N
1525647555.1,286047003.3,N
1525647575.9,286047001.5,N
1525647595.7,286047002.9,N
